www.pogodaiklimat.ru

Погода и климат >> Архив погоды >> Россия >> Краснодарский край >> Сочи аэропорт (Адлер)


ПОГОДА в Сочи аэропорту (Адлер)

  • Прогноз погоды в Сочи аэропорту (Адлер)
  • Монитор погоды в Сочи аэропорту (Адлер)
  • Климат города

АРХИВ ПОГОДЫ в Сочи аэропорту (Адлер)

Время (UTC), дата Ветер
(напр.,м/с)
 
Видим.   Явления Облачность Т
(С)
Тd
(С)
f
(%)
Тe
(С)
Тes
(С)
Комфортность P
(гПа)
Po
(гПа)
Тmin
(С)
Tmax
(С)
R
(мм)
R24
(мм)
S
(см)
06 17.08 С 3 20 км 8/1 600 м
[Cb cap Ac trans]
+28.3 +18.7 56 +33 +37 очень
душно
1008.2 1006.5
09 17.08 З 3 20 км 5/1 1000 м
[Cu med, cong Cs]
+31.0 +19.1 49 +36 +47 очень
душно
1007.9 1006.2
12 17.08 З 5 20 км 9/1 1000 м
[Cu med, cong Ac trans]
+31.4 +21.2 55 +39 +42 очень
душно
1007.9 1006.2
15 17.08 С 8-11
{11}
20 км в посл. час гроза 9/3 1500 м
[Cb cap Ac trans]
+30.0 +13.9 37 +32 +32 жарко 1006.4 1004.7 +32.6
18 17.08 В 3
{13}
4000 м {гроза} 10/4 1500 м
[Cb cap Ac und]
+29.2 +14.8 42 +32 +32 душно 1007.2 1005.5
21 17.08 ЮВ 5-11
{11}
4000 м 9/3 1500 м
[Cb cap Ac trans]
+25.8 +20.0 70 +32 +32 очень
душно
1008.9 1007.2
00 18.08 В 1
{13}
4000 м {гроза} 8/3 1500 м
[Cb cap Ac trans]
+24.0 +17.7 68 +28 +28 душно 1009.2 1007.5
03 18.08 СВ 3 20 км 9/3 1500 м
[Sc Ac trans]
+23.0 +15.3 62 +27 +27 душно 1010.2 1008.5 +23.0
06 18.08 штиль 0 20 км 3/1 1500 м
[Cu med, cong Ci fib]
+29.1 +16.4 46 +32 +42 душно 1010.8 1009.1 +22.7
09 18.08 Ю 3 20 км 3/3 1500 м
[Cu med, cong]
+28.8 +20.0 59 +35 +44 очень
душно
1011.2 1009.5
12 18.08 З 3 10 км 3/3 1000 м
[Cb cap]
+29.5 +20.1 57 +36 +42 очень
душно
1011.6 1009.9
15 18.08 З 3 20 км ясно +29.1 +19.8 57 +35 +36 очень
душно
1010.6 1008.9 +30.4
18 18.08 СВ 2 4000 м ясно +26.5 +20.9 71 +33 +33 очень
душно
1010.8 1009.1
21 18.08 СВ 2 4000 м ясно +24.3 +20.8 81 +30 +30 очень
душно
1011.5 1009.8
00 19.08 СВ 5 4000 м 3/3 1000 м
[Sc]
+23.8 +18.1 70 +28 +28 душно 1011.6 1009.9
03 19.08 СВ 4 20 км 9/1 1500 м
[Cu med, cong Ac trans Ci fib]
+23.3 +17.5 70 +29 +29 душно 1011.5 1009.8 +23.1
06 19.08 СВ 2 20 км 9/1 1500 м
[Cu hum Ac trans Ci fib]
+29.0 +21.1 62 +36 +40 очень
душно
1012.1 1010.4
09 19.08 ЮЗ 3 20 км 5/1 1000 м
[Cu med, cong Ac trans]
+29.5 +21.0 60 +37 +46 очень
душно
1012.3 1010.6
12 19.08 З 4 20 км 1/1 1000 м
[Cb cap]
+29.5 +23.2 69 +40 +46 очень
душно
1012.3 1010.6
15 19.08 З 3 20 км 1/1 1000 м
[Cu med, cong]
+30.0 +20.0 55 +36 +37 очень
душно
1011.7 1010.0 +30.8
18 19.08 В 1 4000 м ясно +26.6 +20.2 68 +33 +33 очень
душно
1012.0 1010.3
21 19.08 В 3 4000 м ясно +24.6 +17.9 66 +29 +29 душно 1012.1 1010.4
00 20.08 В 4 4000 м 5/0
[Ac trans]
+24.7 +15.5 57 +28 +28 душно 1012.1 1010.4
03 20.08 В 5 20 км 8/0
[Ac trans]
+23.2 +15.6 62 +27 +27 душно 1012.0 1010.3 +23.2
06 20.08 СВ 4 20 км 6/0
[Ac trans]
+28.2 +15.1 45 +31 +34 душно 1011.7 1010.0
09 20.08 Ю 3 20 км 9/0
[Ac trans Ci fib]
+30.7 +17.6 46 +35 +43 очень
душно
1011.8 1010.1
12 20.08 З 5 20 км 5/1 1000 м
[Cu hum Ac trans]
+30.6 +19.3 51 +36 +40 очень
душно
1011.0 1009.3
15 20.08 З 5 20 км ясно +29.6 +20.6 58 +36 +37 очень
душно
1010.1 1008.4 +33.0
18 20.08 СЗ 1 4000 м ясно +27.0 +21.5 72 +34 +34 очень
душно
1010.0 1008.3
21 20.08 СВ 2 4000 м ясно +23.9 +20.6 82 +30 +30 очень
душно
1009.8 1008.1
00 21.08 СВ 5 4000 м 4/0
[Ac trans]
+24.0 +18.0 69 +28 +28 душно 1009.8 1008.1
03 21.08 СВ 4 20 км ясно +22.8 +16.6 68 +27 +28 душно 1009.2 1007.5 +22.5
06 21.08 штиль 0 20 км ясно +29.3 +18.3 52 +34 +45 очень
душно
1008.8 1007.1
09 21.08 ЮЗ 3 20 км ясно +30.8 +19.9 52 +37 +50 очень
душно
1007.5 1005.8
12 21.08 СЗ 4 20 км ясно +31.2 +18.7 47 +36 +43 очень
душно
1005.3 1003.6
15 21.08 СЗ 5 20 км 3/0
[Ac trans]
+30.0 +21.4 60 +38 +38 очень
душно
1002.5 1000.8 +32.3
18 21.08 СВ 1 4000 м ясно +26.5 +20.9 71 +33 +33 очень
душно
1002.0 1000.3
21 21.08 СЗ 1 4000 м 9/0
[Ac trans]
+26.0 +20.2 70 +32 +32 очень
душно
1004.0 1002.3
00 22.08 В 3 4000 м 8/0
[Ac trans Ci fib]
+24.6 +19.0 71 +30 +30 очень
душно
1004.9 1003.2
03 22.08 ЮЗ 1 10 км 9/6 750 м
[Cb cap Ac trans]
+28.2 +23.9 78 +39 +39 очень
душно
1006.8 1005.1 +24.0
06 22.08 ЮВ 5
{11}
10 км гроза без осадков {ливн. осадки} 9/8 1500 м
[Cb cap Ac trans]
+26.8 +21.7 74 +34 +35 очень
душно
1008.3 1006.6
09 22.08 ЮВ 2 10 км в посл. час ливневой дождь {гроза} 9/8 1110 м
[Cb cap Ac trans]
+26.8 +21.7 74 +34 +37 очень
душно
1008.8 1007.1
12 22.08 З 3 20 км {гроза, ливн. осадки} 8/3 1000 м
[Cu hum Ac trans]
+29.7 +22.2 64 +39 +42 очень
душно
1008.1 1006.4
15 22.08 СЗ 7-10
{10}
20 км 3/1 1000 м
[Cu hum Ac trans]
+28.0 +23.8 78 +39 +39 очень
душно
1007.5 1005.8 +30.7 2
18 22.08 СЗ 5
{13}
4000 м ясно +26.4 +20.8 71 +33 +33 очень
душно
1007.3 1005.6
21 22.08 СЗ 2
{10}
4000 м 6/0
[Ac trans]
+25.0 +20.2 75 +31 +31 очень
душно
1007.4 1005.7
00 23.08 С 2
{10}
4000 м {ливн. осадки} 8/0
[Ac trans]
+24.5 +20.2 77 +30 +30 очень
душно
1007.7 1006.0
03 23.08 С 2 20 км гроза без осадков 10/0
[Ac trans]
+24.6 +19.3 72 +30 +30 очень
душно
1007.8 1006.1 +23.6
06 23.08 С 4 10 км гроза, ливневой дождь 10/8 600 м
[Cb cap Ac und]
+22.6 +19.7 84 +29 +29 очень
душно
1010.5 1008.8 +22.6
09 23.08 СВ 5
{14}
20 км слабый ливневой дождь, в посл. час гроза 10/6 1500 м
[Cb cap Ac und]
+22.2 +18.1 78 +27 +28 душно 1012.8 1011.1
12 23.08 З 5 20 км {гроза, ливн. осадки} 3/3 1500 м
[Cu med, cong]
+26.1 +16.9 57 +30 +34 душно 1013.2 1011.5
15 23.08 З 4 20 км 4/3 1500 м
[Cu med, cong Ac trans]
+25.5 +17.9 63 +30 +30 душно 1014.7 1013.0 +27.2 8
18 23.08 СВ 1 4000 м 8/0
[Ac trans]
+22.6 +18.7 79 +28 +28 душно 1016.4 1014.7
21 23.08 штиль 0 4000 м 9/0
[Ac trans]
+20.4 +17.8 85 +24 +24 комфорт 1016.2 1014.4
00 24.08 штиль 0 4000 м 10/0
[Ac und]
+20.6 +18.4 87 +24 +24 комфорт 1016.1 1014.3
03 24.08 С 2 20 км 10/0
[Ac und]
+21.4 +15.8 70 +25 +25 комфорт 1015.5 1013.7 +20.3

 

Местоположение метеостанции Сочи аэропорт (Адлер) (Краснодарский край, Россия): широта 43.43 долгота 39.90 высота над уровнем моря 15 м.

В архиве по умолчанию представлена погода в Сочи аэропорту (Адлер) за последнюю неделю. Архивные данные за месяц целиком и за предыдущие месяцы, начиная с января 2011 года, Вы можете получить, выбрав интересующий диапазон дат из раскрывающегося списка и нажав кнопку "Ввод!".

Внимание! Время в таблицах - всемирное. Для получения местного времени необходимо прибавить поправку, которая в Сочи аэропорту (Адлер) равна 3 ч.

Смотрите также архив погоды в соседних городах и на ближайших метеорологических станциях:

Погода в Сочи (Краснодарский край, Россия) (20 км)
Погода в Кепше (Краснодарский край, Россия) (24 км)
Погода в Красной Поляне (Краснодарский край, Россия) (37 км)
Погода в Гузерипле (Адыгея, Россия) (66 км)
Погода в Туапсе (Краснодарский край, Россия) (100 км)
Погода в Псебае (Краснодарский край, Россия) (105 км)
Погода в Горном (Краснодарский край, Россия) (107 км)
Погода в Шунтуке (Адыгея, Россия) (117 км)
Погода в Майкопе (Адыгея, Россия) (133 км)
Погода в Джубге (Краснодарский край, Россия) (138 км)

Пояснения к столбцам:

Ветер - указаны скорость ветра в м/с - средняя за 10 мин, порывы в срок и между сроками (в фигурных скобках) и направление, откуда дует ветер: С - северный, СВ - северо-восточный, В - восточный, ЮВ - юго-восточный, Ю - южный, ЮЗ - юго-западный, З - западный, СЗ - северо-западный.
Видимость - горизонтальная дальность видимости в метрах или километрах. При видимости от 1 до 10 км при отсутствии осадков обычно наблюдается дымка, при ухудшении видимости до 1 км и менее - туман. В сухую погоду видимость может ухудшаться дымом, пылью или мглою.
Явления - указаны атмосферные явления, наблюдавшиеся в срок или в последний час перед сроком; фигурными скобками обозначены явления, наблюдавшиеся между сроками (за 1-3 часа до срока); квадратными скобками обозначены град или гололедные отложения с указанием их диаметра в мм.
Облачность - указаны через наклонную черту общая и нижняя облачность в баллах и высота нижней границы облаков в метрах; квадратными скобками обозначены формы облаков: Ci - перистые, Cs - перисто-слоистые, Cc - перисто-кучевые, Ac - высококучевые, As - высокослоистые, Sc - слоисто-кучевые, Ns - слоисто-дождевые, Cu - кучевые, Cb - кучево-дождевые. Подробнее классификацию облаков см. в Атласе облаков (PDF).
T - Температура воздуха - температура, измеренная на высоте 2 м над землей.
Td - Температура точки росы - температура, при понижении до которой содержащийся в воздухе водяной пар достигнет насыщения.
f - Относительная влажность воздуха - влажноcть воздуха, измеренная на высоте 2 м над землей.
Te - Эффективная температура - температура, которую ощущает одетый по сезону человек в тени. Характеристика душности погоды. При расчете учитывается влияние влажности воздуха и скорости ветра на теплоощущения человека.
Tes - Эффективная температура на солнце - температура, которую ощущает человек, с поправкой на солнечный нагрев. Характеристика знойности погоды. Зависит от высоты солнца над горизонтом, облачности и скорости ветра. Ночью, в пасмурную погоду, а также при ветре 12 м/с и более поправка равна нулю.
P - Атмосферное давление - приведенное к уровню моря атмосферное давление.
Po - Атмосферное давление - измеренное на уровне метеостанции атмосферное давление.
Tmin - Минимальная температура - минимум температуры воздуха на высоте 2 м над землей.
Tmax - Максимальная температура - максимум температуры воздуха на высоте 2 м над землей.
R - Количество осадков - Количество выпавших осадков за период времени, мм. При наведении курсора мыши на число - период времени, за который выпало указанное количество осадков.
R24 - Количество осадков - Количество выпавших осадков за 24 часа, мм.
S - Снежный покров - Высота снежного покрова, см. При наведении курсора мыши на число - состояние снежного покрова и степень покрытия местности в баллах.